Starlink 32924

operational
NORAD ID: 63092 Int'l Des: 2025-037 Owner: SPXS Country: US Constellation: starlink
LEOCIRCULAR

About Starlink 32924

Description loading...

Live Position

Loading 3D Globe...

Upcoming Passes

Altitude History

Altitude vs Time

uPlot chart will show altitude changes over time

Two-Line Element Set

1 63092U 25037R 25259.23746307 .00002892 00000-0 25003-3 0 9996
2 63092 70.0014 74.2010 0003003 268.1143 91.9672 14.98337799 32479
Epoch: Sep 16, 2025 • Age: 8 hours

Current Status

Altitude 595.5 km
Velocity 7.56 km/s
Sub-Earth Point -70.10°S, 146.65°E
Launch Date Feb 23, 2025
Age 0.5 years
Type internet

Technical Details

Classification Payload
Mass 730.00 kg
Dry Mass 700.00 kg
Total Mass 730.00 kg
Length 0.30 m
Diameter 4.10 m
Span 29.00 m
Shape Box + pan
Manufacturer SPXS
Bus Type Starlink V2M
Phase Status In Orbit
Owner/State SPXS/US

Large Constellations

Loading constellations...